Sussex, NJ

5:36 PM EST on February 12, 2016 (GMT -0500)
Sussex

Weather History for KFWN - April, 2014

Change the Weather History Date:

Tuesday, April 8, 2014

  Actual Average Record
Temperature  
Mean Temperature 54 °F -  
Max Temperature 66 °F 54 °F 86 °F (1991)
Min Temperature 44 °F 32 °F 16 °F (1982)
Degree Days  
Heating Degree Days 12    
Growing Degree Days 4 (Base 50)    
Moisture  
Dew Point 42 °F    
Average Humidity 77    
Maximum Humidity 93    
Minimum Humidity 39    
Precipitation  
Precipitation 0.00 in - - ()
Sea Level Pressure  
Sea Level Pressure 29.50 in    
Wind  
Wind Speed 3 mph (WSW)    
Max Wind Speed 18 mph    
Max Gust Speed 31 mph    
Visibility 6 miles    
Events      
Averages and records for this station are not official NWS values.
T = Trace of Precipitation, MM = Missing Value Source: NWS Daily Summary

Daily Weather History Graph

Daily Weather History Graph

Search for Another Location

Airport or City:

Trip Planner

Search our weather history database for the weather conditions in past years. The results will help you decide how hot, cold, wet, or windy it might be!

Date:

Astronomy

Apr. 08, 2014 Rise Set
Actual Time 6:30 AM EDT 7:31 PM EDT
Civil Twilight 6:02 AM EDT 7:59 PM EDT
Nautical Twilight 5:28 AM EDT 8:32 PM EDT
Astronomical Twilight 4:53 AM EDT 9:08 PM EDT
Moon 1:19 PM EDT (4/8) 2:45 AM EDT (4/8)
Length of Visible Light 13h 57m
Length of Day
13h 00m
Waxing Gibbous, 62% of the Moon is Illuminated
Apr 8
Waxing Gibbous
Apr 15
Full
Apr 22
Last Quarter
Apr 29
New
May 6
First Quarter

Hourly Weather History & Observations

Time (EDT) Temp. Windchill Dew Point Humidity Pressure Visibility Wind Dir Wind Speed Gust Speed Precip Events Conditions
12:53 AM 44.1 °F 42.5 °F 42.1 °F 93% 29.63 in 5.0 mi ENE 3.5 mph - N/A   Overcast
1:05 AM 45.0 °F - 43.0 °F 93% 29.62 in 5.0 mi Calm Calm - N/A   Overcast
1:50 AM 44.6 °F - 41.0 °F 87% 29.60 in 2.5 mi Calm Calm - N/A   Overcast
1:53 AM 44.1 °F - 41.0 °F 89% 29.60 in 2.5 mi Calm Calm - N/A   Overcast
2:10 AM 44.1 °F - 41.0 °F 89% 29.57 in 2.5 mi Calm Calm - N/A   Overcast
2:18 AM 44.1 °F - 41.0 °F 89% 29.56 in 3.0 mi Calm Calm - N/A   Overcast
2:29 AM 44.1 °F - 41.0 °F 89% 29.56 in 3.0 mi Calm Calm - N/A   Overcast
2:40 AM 44.1 °F - 42.1 °F 93% 29.55 in 4.0 mi Calm Calm - N/A   Overcast
2:53 AM 44.1 °F - 42.1 °F 93% 29.55 in 4.0 mi Calm Calm - N/A   Overcast
3:19 AM 45.0 °F - 42.1 °F 90% 29.54 in 5.0 mi Calm Calm - N/A   Overcast
3:53 AM 45.0 °F - 42.1 °F 90% 29.52 in 3.0 mi Calm Calm - N/A   Overcast
4:45 AM 45.0 °F - 42.1 °F 90% 29.50 in 4.0 mi Calm Calm - N/A   Overcast
4:53 AM 45.0 °F - 42.1 °F 90% 29.49 in 5.0 mi Calm Calm - N/A   Overcast
5:00 AM 45.0 °F - 42.1 °F 90% 29.49 in 5.0 mi Calm Calm - N/A   Overcast
5:17 AM 45.0 °F - 42.1 °F 90% 29.49 in 6.0 mi Calm Calm - N/A   Overcast
5:43 AM 45.0 °F - 42.1 °F 90% 29.47 in 5.0 mi Calm Calm - N/A   Overcast
5:53 AM 46.0 °F - 43.0 °F 89% 29.48 in 4.0 mi Calm Calm - N/A   Overcast
6:34 AM 46.0 °F - 43.0 °F 89% 29.46 in 2.0 mi Calm Calm - N/A   Overcast
6:53 AM 46.0 °F - 43.0 °F 89% 29.46 in 2.0 mi Calm Calm - N/A   Overcast
7:07 AM 46.0 °F - 43.0 °F 89% 29.45 in 1.8 mi Calm Calm - N/A   Overcast
7:18 AM 46.0 °F - 43.0 °F 89% 29.45 in 1.2 mi Calm Calm - N/A   Overcast
7:33 AM 46.0 °F - 44.1 °F 93% 29.45 in 1.2 mi Calm Calm - N/A   Overcast
7:40 AM 46.0 °F - 44.1 °F 93% 29.45 in 1.5 mi Calm Calm - N/A   Overcast
7:53 AM 46.9 °F - 44.1 °F 90% 29.45 in 1.2 mi Calm Calm - N/A   Overcast
8:28 AM 46.9 °F - 44.1 °F 90% 29.45 in 1.2 mi Calm Calm - N/A   Overcast
8:38 AM 46.9 °F - 45.0 °F 93% 29.44 in 1.5 mi Calm Calm - N/A   Overcast
8:53 AM 46.9 °F - 44.1 °F 90% 29.45 in 2.0 mi SSW 3.5 mph - N/A   Overcast
9:13 AM 48.0 °F - 45.0 °F 89% 29.44 in 1.5 mi Calm Calm - N/A   Overcast
9:43 AM 50.0 °F - 48.0 °F 93% 29.42 in 2.5 mi WSW 3.5 mph - N/A   Overcast
9:46 AM 51.1 °F - 48.0 °F 89% 29.42 in 3.0 mi Calm Calm - N/A   Overcast
9:53 AM 52.0 °F - 48.9 °F 89% 29.42 in 5.0 mi WSW 4.6 mph - N/A   Overcast
10:26 AM 55.9 °F - 51.1 °F 84% 29.41 in 10.0 mi Variable 6.9 mph - N/A   Overcast
10:53 AM 59.0 °F - 52.0 °F 78% 29.41 in 10.0 mi SW 13.8 mph 21.9 mph N/A   Overcast
11:13 AM 60.1 °F - 51.1 °F 72% 29.40 in 10.0 mi SSW 11.5 mph 24.2 mph N/A   Overcast
11:42 AM 62.1 °F - 46.9 °F 58% 29.40 in 10.0 mi West 11.5 mph 25.3 mph N/A   Mostly Cloudy
11:53 AM 63.0 °F - 46.9 °F 56% 29.40 in 10.0 mi WSW 17.3 mph 26.5 mph N/A   Mostly Cloudy
12:53 PM 63.0 °F - 45.0 °F 52% 29.39 in 10.0 mi West 8.1 mph 21.9 mph N/A   Overcast
1:53 PM 62.1 °F - 39.9 °F 44% 29.41 in 10.0 mi WSW 13.8 mph 31.1 mph N/A   Overcast
2:53 PM 60.1 °F - 39.0 °F 46% 29.43 in 10.0 mi West 18.4 mph 28.8 mph N/A   Overcast
3:53 PM 59.0 °F - 37.0 °F 44% 29.45 in 10.0 mi WSW 15.0 mph 24.2 mph N/A   Overcast
4:53 PM 59.0 °F - 36.0 °F 42% 29.47 in 10.0 mi WSW 9.2 mph 17.3 mph N/A   Overcast
5:53 PM 57.9 °F - 33.1 °F 39% 29.51 in 10.0 mi WNW 9.2 mph 26.5 mph N/A   Mostly Cloudy
6:53 PM 55.9 °F - 32.0 °F 40% 29.55 in 10.0 mi Variable 6.9 mph 23.0 mph N/A   Clear
7:53 PM 54.0 °F - 32.0 °F 43% 29.60 in 10.0 mi West 8.1 mph - N/A   Mostly Cloudy
8:53 PM 51.1 °F - 33.1 °F 50% 29.64 in 10.0 mi Variable 6.9 mph 20.7 mph N/A   Overcast
9:53 PM 50.0 °F - 33.1 °F 52% 29.65 in 10.0 mi WNW 6.9 mph - N/A   Overcast
10:53 PM 50.0 °F - 33.1 °F 52% 29.65 in 10.0 mi WNW 9.2 mph - N/A   Overcast
11:53 PM 48.9 °F - 34.0 °F 56% 29.64 in 10.0 mi Variable 6.9 mph - N/A   Overcast